Location: Winter Haven
(28.0220°N, 81.7330°W)
Time: 13:27:46
(UTC-04:00)

Amateur Radio Satellites - All Passes

Search period start: 19 April 2014 12:57
Search period end: 20 April 2014 12:57
Location: Winter Haven, 28.0220°N, 81.7330°W

Satellite Date Start Highest point End Downlink Frequencies (MHz)
Time Altitude Azimuth
PANSAT 19 Apr 13:35:45 13:39:26 44° 197° (SSW) 13:43:07 not established
KITSAT 1 19 Apr 13:54:22 14:02:20 65° 249° (WSW) 14:10:15 435.175 FM
AO-27 19 Apr 13:55:03 13:58:39 19° 69° (ENE) 14:02:15 436.795 MHz FM
ITAMSAT 1 19 Apr 14:05:13 14:09:19 24° 70° (ENE) 14:13:25 435.822 SSB
Oscar 19 19 Apr 14:09:14 14:14:13 55° 75° (ENE) 14:19:14 437.125 CW, 437.150 USB
ISS 19 Apr 14:09:58 14:11:59 15° 125° (SE) 14:14:00 145.800 FM
AO-Echo 19 Apr 14:13:09 14:17:14 23° 71° (ENE) 14:21:15 ?
Oscar 16 19 Apr 14:17:22 14:22:28 74° 76° (ENE) 14:27:36 437.025 USB, Beacon 2401.1428
Uribyol 2 19 Apr 14:52:25 14:57:35 85° 76° (ENE) 15:02:45 436.500 FM
SO-50 19 Apr 15:07:32 15:11:19 27° 111° (ESE) 15:15:06 436.795 FM
RS-15 19 Apr 15:14:35 15:21:53 19° 44° (NE) 15:29:13 29.354 - 29.394 USB, Beacon 29.352 USB
JAS-1B 19 Apr 15:17:16 15:22:45 20° 68° (ENE) 15:27:41 435.800 - 435.900 CW/SSB
PANSAT 19 Apr 15:17:28 15:19:16 13° 207° (SSW) 15:21:04 not established
Gurwin Techsat 1B 19 Apr 15:24:53 15:29:55 46° 74° (ENE) 15:34:58 435.225 FM
OPAL 19 Apr 15:29:15 15:33:47 30° 100° (E) 15:38:17 ?
AO-27 19 Apr 15:33:05 15:37:50 37° 261° (W) 15:42:37 436.795 MHz FM
ITAMSAT 1 19 Apr 15:44:10 15:48:36 29° 262° (W) 15:53:03 435.822 SSB
ISS 19 Apr 15:45:32 15:48:30 29° 317° (NW) 15:51:28 145.800 FM
AO-Echo 19 Apr 15:51:07 15:55:45 31° 262° (W) 16:00:20 ?
Oscar 19 19 Apr 15:52:00 15:53:46 12° 266° (W) 15:55:32 437.125 CW, 437.150 USB
Uosat F 19 Apr 16:09:50 16:14:10 30° 71° (ENE) 16:18:30 435.120 FM
TMSAT-1 19 Apr 16:12:49 16:18:06 81° 258° (WSW) 16:23:25 436.925 FM
AO-7 19 Apr 16:46:48 16:54:50 58° 69° (ENE) 17:02:52 29.400 - 29.500 MHz
SO-50 19 Apr 16:48:23 16:51:48 21° 304° (WNW) 16:55:13 436.795 FM
JAS-1B 19 Apr 17:04:18 17:12:57 65° 257° (WSW) 17:20:12 435.800 - 435.900 CW/SSB
Gurwin Techsat 1B 19 Apr 17:07:00 17:10:00 15° 265° (W) 17:13:01 435.225 FM
OPAL 19 Apr 17:08:18 17:12:26 24° 292° (WNW) 17:16:34 ?
RS-15 19 Apr 17:24:43 17:35:47 85° 65° (ENE) 17:47:14 29.354 - 29.394 USB, Beacon 29.352 USB
UOSAT-12 19 Apr 17:29:53 17:34:08 44° 113° (ESE) 17:38:30 437.025 FM, 437.400 FM
Uosat F 19 Apr 17:49:03 17:52:52 22° 263° (W) 17:56:42 435.120 FM
JAS-2 19 Apr 18:39:50 18:42:58 15° 69° (ENE) 18:45:58 435.800 - 435.900 CW/SSB, 435.910 FM
AO-7 19 Apr 18:41:35 18:47:48 24° 262° (W) 18:54:05 29.400 - 29.500 MHz
Hamsat 19 Apr 18:54:02 18:58:09 61° 77° (ENE) 19:02:19 145.90 MHz
UOSAT-12 19 Apr 19:11:56 19:14:28 15° 307° (NW) 19:17:03 437.025 FM, 437.400 FM
RS-15 19 Apr 19:40:28 19:46:51 17° 258° (WSW) 19:53:24 29.354 - 29.394 USB, Beacon 29.352 USB
STRAND 1 19 Apr 19:45:45 19:50:42 51° 101° (E) 19:55:38 ?
SO-67 19 Apr 20:13:29 20:16:57 75° 259° (W) 20:20:26 435.3500 MHz FM
JAS-2 19 Apr 20:21:42 20:27:44 54° 259° (WSW) 20:33:09 435.800 - 435.900 CW/SSB, 435.910 FM
HO-68 19 Apr 21:03:04 21:09:10 32° 67° (ENE) 21:15:17 435.675 MHz FM
Saudisat 1A 19 Apr 21:03:31 21:07:50 55° 62° (ENE) 21:12:05 436.775 MHz
STRAND 1 19 Apr 21:26:59 21:29:24 14° 293° (WNW) 21:31:48 ?
Oscar 11 19 Apr 22:06:23 22:10:14 33° 74° (ENE) 22:14:06 145.825 FM, Beacon 2401.500 USB
MaSat-1 19 Apr 22:10:58 22:13:59 35° 291° (WNW) 22:16:36 437.345 MHz
AO-40 19 Apr 22:14:50 22:18:14 15° 181° (S) 22:21:43 Beacon 2401.320
ISS 19 Apr 22:21:09 22:22:16 11° 36° (NE) 22:23:24 145.800 FM
HO-68 19 Apr 22:50:11 22:56:38 37° 260° (W) 23:03:07 435.675 MHz FM
FUNcube-1 19 Apr 23:33:08 23:37:22 69° 259° (W) 23:41:32 145.950 - 145.970 MHz USB
Oscar 11 19 Apr 23:44:14 23:46:27 14° 265° (W) 23:48:40 145.825 FM, Beacon 2401.500 USB
ISS 19 Apr 23:55:57 23:59:14 55° 230° (SW) 00:02:30 145.800 FM
Sapphire 20 Apr 00:19:04 00:24:00 38° 108° (ESE) 00:28:58 437.095 MHz 1200 baud AX-25 AFSK
PCSat 20 Apr 01:03:24 01:08:46 71° 294° (WNW) 01:14:10 145.825 MHz
SO-50 20 Apr 01:25:17 01:29:51 52° 61° (ENE) 01:34:28 436.795 FM
Oscar 10/S400 20 Apr 01:37:55 01:54:23 30° 141° (SE) 02:18:59 145.825 - 145.975 CW/USB, Beacon 145.810 USB
Sapphire 20 Apr 02:03:24 02:07:28 21° 302° (WNW) 02:11:33 437.095 MHz 1200 baud AX-25 AFSK
AO-27 20 Apr 02:16:28 02:18:10 12° 94° (E) 02:19:53 436.795 MHz FM
KITSAT 1 20 Apr 02:19:54 02:27:12 38° 107° (ESE) 02:34:30 435.175 FM
ITAMSAT 1 20 Apr 02:25:55 02:28:51 15° 95° (E) 02:31:46 435.822 SSB
Oscar 19 20 Apr 02:28:09 02:32:54 35° 99° (E) 02:37:37 437.125 CW, 437.150 USB
AO-Echo 20 Apr 02:29:50 02:30:51 11° 94° (E) 02:31:52 ?
Oscar 16 20 Apr 02:36:18 02:41:18 47° 100° (E) 02:46:17 437.025 USB, Beacon 2401.1428
OPAL 20 Apr 02:38:01 02:41:59 24° 68° (ENE) 02:45:59 ?
SO-50 20 Apr 03:08:22 03:09:57 12° 252° (WSW) 03:11:33 436.795 FM
Uribyol 2 20 Apr 03:12:20 03:17:24 55° 101° (E) 03:22:28 436.500 FM
UOSAT-12 20 Apr 03:45:42 03:50:25 77° 63° (ENE) 03:55:04 437.025 FM, 437.400 FM
Gurwin Techsat 1B 20 Apr 03:48:25 03:53:11 33° 98° (E) 03:57:55 435.225 FM
AO-27 20 Apr 03:52:50 03:57:54 56° 285° (WNW) 04:02:57 436.795 MHz FM
ITAMSAT 1 20 Apr 04:03:33 04:08:26 44° 287° (WNW) 04:13:19 435.822 SSB
AO-Echo 20 Apr 04:05:17 04:09:50 49° 285° (WNW) 04:14:20 ?
Oscar 19 20 Apr 04:08:14 04:11:55 20° 291° (WNW) 04:15:37 437.125 CW, 437.150 USB
KITSAT 1 20 Apr 04:15:06 04:22:26 37° 302° (WNW) 04:29:50 435.175 FM
OPAL 20 Apr 04:16:26 04:20:40 28° 260° (W) 04:24:58 ?
Oscar 16 20 Apr 04:17:19 04:20:11 15° 292° (WNW) 04:23:04 437.025 USB, Beacon 2401.1428
Uosat F 20 Apr 04:25:29 04:28:35 16° 96° (E) 04:31:40 435.120 FM
TMSAT-1 20 Apr 04:35:50 04:41:07 74° 102° (ESE) 04:46:24 436.925 FM
Uribyol 2 20 Apr 04:54:04 04:56:21 13° 293° (WNW) 04:58:39 436.500 FM
AO-7 20 Apr 04:56:57 05:03:56 29° 99° (E) 05:10:52 29.400 - 29.500 MHz
JAS-1B 20 Apr 04:57:23 05:02:55 50° 102° (ESE) 05:08:55 435.800 - 435.900 CW/SSB
Gurwin Techsat 1B 20 Apr 05:28:54 05:32:52 22° 290° (WNW) 05:36:50 435.225 FM
RS-15 20 Apr 05:30:41 05:38:38 22° 103° (ESE) 05:46:19 29.354 - 29.394 USB, Beacon 29.352 USB
Uosat F 20 Apr 06:02:48 06:07:25 39° 287° (WNW) 06:12:01 435.120 FM
PANSAT 20 Apr 06:33:30 06:34:42 11° 152° (SSE) 06:35:54 not established
Hamsat 20 Apr 06:47:40 06:50:51 20° 96° (E) 06:54:02 145.90 MHz
AO-7 20 Apr 06:48:53 06:56:43 48° 292° (WNW) 07:04:35 29.400 - 29.500 MHz
JAS-1B 20 Apr 06:50:08 06:53:14 15° 293° (WNW) 06:56:26 435.800 - 435.900 CW/SSB
STRAND 1 20 Apr 06:55:05 06:59:43 36° 72° (ENE) 07:04:22 ?
JAS-2 20 Apr 07:37:33 07:42:10 25° 99° (E) 07:47:12 435.800 - 435.900 CW/SSB, 435.910 FM
RS-15 20 Apr 07:38:26 07:49:55 75° 297° (WNW) 08:00:59 29.354 - 29.394 USB, Beacon 29.352 USB
SO-67 20 Apr 07:46:27 07:48:05 13° 95° (E) 07:49:42 435.3500 MHz FM
PANSAT 20 Apr 08:10:52 08:14:30 39° 161° (SSE) 08:18:09 not established
MaSat-1 20 Apr 08:18:00 08:21:18 71° 250° (WSW) 08:25:18 437.345 MHz
Hamsat 20 Apr 08:23:11 08:26:43 25° 287° (WNW) 08:30:15 145.90 MHz
STRAND 1 20 Apr 08:35:26 08:38:55 18° 264° (W) 08:42:25 ?
SO-67 20 Apr 09:18:25 09:21:09 22° 286° (WNW) 09:23:53 435.3500 MHz FM
JAS-2 20 Apr 09:22:14 09:27:09 33° 287° (WNW) 09:32:32 435.800 - 435.900 CW/SSB, 435.910 FM
PANSAT 20 Apr 09:50:44 09:54:37 89° 173° (S) 09:58:29 not established
RS-15 20 Apr 09:57:50 10:04:15 17° 319° (NW) 10:10:37 29.354 - 29.394 USB, Beacon 29.352 USB
PCSat 20 Apr 09:59:15 10:03:25 22° 58° (ENE) 10:07:33 145.825 MHz
Oscar 11 20 Apr 10:03:29 10:04:31 11° 94° (E) 10:05:32 145.825 FM, Beacon 2401.500 USB
HO-68 20 Apr 10:24:38 10:31:46 65° 103° (ESE) 10:38:52 435.675 MHz FM
Sapphire 20 Apr 10:56:43 11:02:08 73° 66° (ENE) 11:07:31 437.095 MHz 1200 baud AX-25 AFSK
Saudisat 1A 20 Apr 11:03:15 11:07:41 79° 115° (ESE) 11:12:10 436.775 MHz
FUNcube-1 20 Apr 11:29:16 11:33:16 38° 99° (E) 11:37:22 145.950 - 145.970 MHz USB
PANSAT 20 Apr 11:31:00 11:34:52 90° 8° (N) 11:38:45 not established
Oscar 11 20 Apr 11:36:41 11:40:49 43° 285° (WNW) 11:44:56 145.825 FM, Beacon 2401.500 USB
PCSat 20 Apr 11:41:55 11:46:51 36° 252° (WSW) 11:51:45 145.825 MHz
HO-68 20 Apr 12:14:09 12:18:47 19° 297° (WNW) 12:23:26 435.675 MHz FM
KITSAT 1 20 Apr 12:15:42 12:22:56 35° 57° (ENE) 12:30:04 435.175 FM
